| time (UTC) | temp C | wind direction | speed KPH | gust KPH | rain 1hr cm | rain 24hr cm | rain mn cm | humidity % | barometer mb |
| 20260906232616 | 23 | 211 | 0.0 | 0.0 | 0.00 | 0.00 | 0.00 | 34 | 1014.4 |
| 20260906231624 | 23 | 202 | 1.6 | 9.7 | 0.00 | 0.00 | 0.00 | 33 | 1014.4 |
| 20260906230611 | 23 | 215 | 8.0 | 20.9 | 0.00 | 0.00 | 0.00 | 33 | 1014.4 |
| 20260906225640 | 23 | 198 | 3.2 | 32.2 | 0.00 | 0.00 | 0.00 | 39 | 1014.4 |
| 20260906224609 | 23 | 193 | 4.8 | 14.5 | 0.00 | 0.00 | 0.00 | 32 | 1014.6 |
| 20260906223616 | 23 | 174 | 3.2 | 19.3 | 0.00 | 0.00 | 0.00 | 35 | 1014.6 |
| 20260906222623 | 23 | 192 | 9.7 | 27.4 | 0.00 | 0.00 | 0.00 | 33 | 1014.7 |
| 20260906221610 | 23 | 163 | 4.8 | 35.4 | 0.00 | 0.00 | 0.00 | 37 | 1014.8 |
| 20260906220619 | 24 | 186 | 4.8 | 32.2 | 0.00 | 0.00 | 0.00 | 33 | 1014.8 |
| 20260906215611 | 24 | 201 | 6.4 | 32.2 | 0.00 | 0.00 | 0.00 | 31 | 1014.8 |
| 20260906214619 | 24 | 205 | 3.2 | 16.1 | 0.00 | 0.00 | 0.00 | 31 | 1014.8 |
| 20260906213627 | 24 | 227 | 6.4 | 25.7 | 0.00 | 0.00 | 0.00 | 27 | 1014.8 |
| 20260906212613 | 24 | 219 | 3.2 | 29.0 | 0.00 | 0.00 | 0.00 | 34 | 1014.9 |
| 20260906211623 | 24 | 236 | 4.8 | 33.8 | 0.00 | 0.00 | 0.00 | 30 | 1014.8 |
| 20260906210610 | 24 | 217 | 9.7 | 25.7 | 0.00 | 0.00 | 0.00 | 29 | 1015.1 |
| 20260906205619 | 24 | 174 | 14.5 | 37.0 | 0.00 | 0.00 | 0.00 | 28 | 1015.2 |
| 20260906204626 | 24 | 214 | 11.3 | 32.2 | 0.00 | 0.00 | 0.00 | 28 | 1015.2 |
| 20260906203618 | 25 | 152 | 3.2 | 30.6 | 0.00 | 0.00 | 0.00 | 28 | 1015.2 |
| 20260906202626 | 25 | 198 | 3.2 | 33.8 | 0.00 | 0.00 | 0.00 | 24 | 1015.3 |
| 20260906201613 | 25 | 119 | 6.4 | 24.1 | 0.00 | 0.00 | 0.00 | 26 | 1015.3 |
| 20260906200641 | 24 | 192 | 8.0 | 35.4 | 0.00 | 0.00 | 0.00 | 28 | 1015.4 |
| 20260906195649 | 24 | 196 | 1.6 | 35.4 | 0.00 | 0.00 | 0.00 | 27 | 1015.6 |
| 20260906194619 | 23 | 214 | 4.8 | 29.0 | 0.00 | 0.00 | 0.00 | 29 | 1015.5 |
| 20260906193644 | 23 | 178 | 1.6 | 19.3 | 0.00 | 0.00 | 0.00 | 28 | 1015.9 |
| 20260906192633 | 24 | 206 | 1.6 | 43.5 | 0.00 | 0.00 | 0.00 | 25 | 1015.8 |
| 20260906191619 | 23 | 188 | 8.0 | 45.1 | 0.00 | 0.00 | 0.00 | 29 | 1015.8 |
| 20260906190610 | 24 | 201 | 4.8 | 24.1 | 0.00 | 0.00 | 0.00 | 25 | 1015.9 |
| 20260906185637 | 24 | 205 | 6.4 | 25.7 | 0.00 | 0.00 | 0.00 | 26 | 1016.1 |
| 20260906184623 | 24 | 172 | 1.6 | 22.5 | 0.00 | 0.00 | 0.00 | 23 | 1016.2 |
| 20260906183627 | 23 | 239 | 4.8 | 19.3 | 0.00 | 0.00 | 0.00 | 26 | 1016.4 |
| 20260906182611 | 23 | 163 | 1.6 | 24.1 | 0.00 | 0.00 | 0.00 | 29 | 1016.5 |
| 20260906181619 | 23 | 178 | 1.6 | 11.3 | 0.00 | 0.00 | 0.00 | 31 | 1016.6 |
| 20260906180616 | 23 | 290 | 0.0 | 4.8 | 0.00 | 0.00 | 0.00 | 29 | 1016.9 |
| 20260906175642 | 23 | 198 | 1.6 | 9.7 | 0.00 | 0.00 | 0.00 | 29 | 1017.1 |
| 20260906174627 | 21 | 174 | 1.6 | 12.9 | 0.00 | 0.00 | 0.00 | 36 | 1017.3 |
| 20260906173614 | 20 | 94 | 0.0 | 0.0 | 0.00 | 0.00 | 0.00 | 45 | 1017.4 |
| 20260906172646 | 20 | 27 | 0.0 | 0.0 | 0.00 | 0.00 | 0.00 | 50 | 1017.5 |
| 20260906171612 | 20 | 49 | 0.0 | 0.0 | 0.00 | 0.00 | 0.00 | 48 | 1017.6 |
| 20260906170621 | 19 | 21 | 0.0 | 0.0 | 0.00 | 0.00 | 0.00 | 50 | 1017.7 |
| 20260906165628 | 18 | 14 | 0.0 | 0.0 | 0.00 | 0.00 | 0.00 | 52 | 1017.7 |
| 20260906164620 | 19 | 40 | 0.0 | 0.0 | 0.00 | 0.00 | 0.00 | 52 | 1018.0 |
| 20260906163626 | 18 | 42 | 0.0 | 0.0 | 0.00 | 0.00 | 0.00 | 54 | 1018.1 |
| 20260906162615 | 18 | 32 | 0.0 | 0.0 | 0.00 | 0.00 | 0.00 | 53 | 1018.2 |
| 20260906161620 | 18 | 40 | 0.0 | 0.0 | 0.00 | 0.00 | 0.00 | 54 | 1018.2 |
| 20260906160628 | 18 | 43 | 0.0 | 0.0 | 0.00 | 0.00 | 0.00 | 56 | 1018.2 |
| 20260906155616 | 17 | 39 | 0.0 | 0.0 | 0.00 | 0.00 | 0.00 | 59 | 1018.4 |
| 20260906154620 | 16 | 29 | 0.0 | 0.0 | 0.00 | 0.00 | 0.00 | 64 | 1018.4 |
| 20260906153647 | 16 | 13 | 0.0 | 0.0 | 0.00 | 0.00 | 0.00 | 66 | 1018.4 |
| 20260906152612 | 16 | 347 | 0.0 | 0.0 | 0.00 | 0.00 | 0.00 | 66 | 1018.5 |
| 20260906151642 | 16 | 355 | 0.0 | 0.0 | 0.00 | 0.00 | 0.00 | 66 | 1018.5 |
| 20260906150609 | 16 | 9 | 0.0 | 0.0 | 0.00 | 0.00 | 0.00 | 68 | 1018.5 |
| 20260906145617 | 16 | 355 | 0.0 | 0.0 | 0.00 | 0.00 | 0.00 | 70 | 1018.5 |
| 20260906144624 | 16 | 360 | 0.0 | 0.0 | 0.00 | 0.00 | 0.00 | 68 | 1018.5 |
| 20260906143615 | 16 | 338 | 0.0 | 0.0 | 0.00 | 0.00 | 0.00 | 61 | 1018.5 |
| 20260906142623 | 15 | 271 | 0.0 | 0.0 | 0.00 | 0.00 | 0.00 | 55 | 1018.5 |
| 20260906141611 | 14 | 271 | 0.0 | 0.0 | 0.00 | 0.00 | 0.00 | 53 | 1018.4 |
| 20260906140619 | 13 | 271 | 0.0 | 0.0 | 0.00 | 0.00 | 0.00 | 49 | 1018.4 |
| 20260906135611 | 13 | 271 | 0.0 | 0.0 | 0.00 | 0.00 | 0.00 | 49 | 1018.3 |
| 20260906134619 | 12 | 271 | 0.0 | 0.0 | 0.00 | 0.00 | 0.00 | 48 | 1018.3 |
| 20260906133628 | 12 | 271 | 0.0 | 0.0 | 0.00 | 0.00 | 0.00 | 48 | 1018.2 |
| 20260906132634 | 12 | 273 | 0.0 | 0.0 | 0.00 | 0.00 | 0.00 | 52 | 1018.0 |
| 20260906131622 | 11 | 275 | 0.0 | 0.0 | 0.00 | 0.00 | 0.00 | 53 | 1018.0 |
| 20260906130627 | 11 | 273 | 0.0 | 0.0 | 0.00 | 0.00 | 0.00 | 55 | 1018.0 |
| 20260906125615 | 11 | 271 | 0.0 | 0.0 | 0.00 | 0.00 | 0.00 | 55 | 1018.0 |
| 20260906124641 | 11 | 267 | 0.0 | 0.0 | 0.00 | 0.00 | 0.00 | 52 | 1018.0 |
| 20260906123626 | 11 | 269 | 0.0 | 0.0 | 0.00 | 0.00 | 0.00 | 49 | 1018.0 |
| 20260906122618 | 11 | 270 | 0.0 | 0.0 | 0.00 | 0.00 | 0.00 | 49 | 1018.0 |
| 20260906121624 | 11 | 271 | 0.0 | 0.0 | 0.00 | 0.00 | 0.00 | 49 | 1018.0 |
| 20260906120624 | 11 | 273 | 0.0 | 0.0 | 0.00 | 0.00 | 0.00 | 50 | 1018.0 |
| 20260906115611 | 11 | 267 | 0.0 | 0.0 | 0.00 | 0.00 | 0.00 | 52 | 1018.0 |
| 20260906114619 | 11 | 263 | 0.0 | 0.0 | 0.00 | 0.00 | 0.00 | 53 | 1018.0 |
| 20260906113629 | 12 | 275 | 0.0 | 0.0 | 0.00 | 0.00 | 0.00 | 44 | 1018.1 |
| 20260906112616 | 12 | 277 | 0.0 | 0.0 | 0.00 | 0.00 | 0.00 | 42 | 1018.0 |
| 20260906111625 | 12 | 279 | 0.0 | 0.0 | 0.00 | 0.00 | 0.00 | 43 | 1018.0 |
| 20260906110612 | 12 | 261 | 0.0 | 0.0 | 0.00 | 0.00 | 0.00 | 43 | 1018.1 |
| 20260906105625 | 12 | 261 | 0.0 | 0.0 | 0.00 | 0.00 | 0.00 | 41 | 1018.1 |
| 20260906104612 | 12 | 260 | 0.0 | 0.0 | 0.00 | 0.00 | 0.00 | 41 | 1017.9 |
| 20260906103638 | 12 | 260 | 0.0 | 0.0 | 0.00 | 0.00 | 0.00 | 41 | 1017.9 |
| 20260906102625 | 11 | 262 | 0.0 | 0.0 | 0.00 | 0.00 | 0.00 | 43 | 1017.8 |
| 20260906101615 | 12 | 263 | 0.0 | 0.0 | 0.00 | 0.00 | 0.00 | 44 | 1017.8 |
| 20260906100623 | 12 | 276 | 0.0 | 0.0 | 0.00 | 0.00 | 0.00 | 41 | 1017.7 |
| 20260906095629 | 12 | 275 | 0.0 | 0.0 | 0.00 | 0.00 | 0.00 | 42 | 1017.6 |
| 20260906094615 | 12 | 266 | 0.0 | 0.0 | 0.00 | 0.00 | 0.00 | 42 | 1017.6 |
| 20260906093626 | 12 | 246 | 0.0 | 0.0 | 0.00 | 0.00 | 0.00 | 44 | 1017.5 |
| 20260906092650 | 11 | 247 | 0.0 | 0.0 | 0.00 | 0.00 | 0.00 | 45 | 1017.4 |
| 20260906091614 | 12 | 266 | 0.0 | 0.0 | 0.00 | 0.00 | 0.00 | 47 | 1017.4 |
| 20260906090621 | 12 | 266 | 0.0 | 0.0 | 0.00 | 0.00 | 0.00 | 46 | 1017.5 |
| 20260906085610 | 12 | 264 | 0.0 | 0.0 | 0.00 | 0.00 | 0.00 | 47 | 1017.3 |
| 20260906084622 | 12 | 264 | 0.0 | 0.0 | 0.00 | 0.00 | 0.00 | 46 | 1017.3 |
| 20260906083629 | 12 | 265 | 0.0 | 0.0 | 0.00 | 0.00 | 0.00 | 45 | 1017.2 |
| 20260906082638 | 12 | 265 | 0.0 | 0.0 | 0.00 | 0.00 | 0.00 | 48 | 1017.4 |
| 20260906081625 | 13 | 261 | 0.0 | 0.0 | 0.00 | 0.00 | 0.00 | 45 | 1017.3 |
| 20260906080615 | 13 | 261 | 0.0 | 0.0 | 0.00 | 0.00 | 0.00 | 44 | 1017.5 |
| 20260906075645 | 13 | 261 | 0.0 | 0.0 | 0.00 | 0.00 | 0.00 | 44 | 1017.5 |
| 20260906074611 | 13 | 232 | 0.0 | 0.0 | 0.00 | 0.00 | 0.00 | 42 | 1017.5 |
| 20260906073618 | 13 | 232 | 0.0 | 0.0 | 0.00 | 0.00 | 0.00 | 43 | 1017.4 |
| 20260906072610 | 13 | 239 | 0.0 | 0.0 | 0.00 | 0.00 | 0.00 | 44 | 1017.5 |
| 20260906071638 | 14 | 267 | 0.0 | 0.0 | 0.00 | 0.00 | 0.00 | 40 | 1017.4 |
| 20260906070623 | 14 | 267 | 0.0 | 0.0 | 0.00 | 0.00 | 0.00 | 41 | 1017.4 |
| 20260906065614 | 14 | 193 | 0.0 | 0.0 | 0.00 | 0.00 | 0.00 | 39 | 1017.5 |
| 20260906064623 | 13 | 193 | 0.0 | 0.0 | 0.00 | 0.00 | 0.00 | 46 | 1017.4 |
| 20260906063617 | 14 | 193 | 0.0 | 0.0 | 0.00 | 0.00 | 0.00 | 40 | 1017.4 |
| 20260906062644 | 15 | 193 | 0.0 | 0.0 | 0.00 | 0.00 | 0.00 | 40 | 1017.5 |
| 20260906061627 | 15 | 193 | 0.0 | 0.0 | 0.00 | 0.00 | 0.00 | 43 | 1017.3 |
| 20260906060626 | 16 | 198 | 0.0 | 0.0 | 0.00 | 0.00 | 0.00 | 46 | 1017.4 |
| 20260906055614 | 15 | 232 | 0.0 | 0.0 | 0.00 | 0.00 | 0.00 | 44 | 1017.3 |
| 20260906054625 | 15 | 257 | 0.0 | 0.0 | 0.00 | 0.00 | 0.00 | 42 | 1017.2 |
| 20260906053628 | 15 | 269 | 0.0 | 0.0 | 0.00 | 0.00 | 0.00 | 39 | 1017.2 |
| 20260906052613 | 15 | 278 | 0.0 | 0.0 | 0.00 | 0.00 | 0.00 | 39 | 1017.3 |
| 20260906051620 | 16 | 232 | 0.0 | 0.0 | 0.00 | 0.00 | 0.00 | 40 | 1017.4 |
| 20260906050646 | 16 | 232 | 0.0 | 0.0 | 0.00 | 0.00 | 0.00 | 37 | 1017.4 |
| 20260906045639 | 16 | 241 | 0.0 | 0.0 | 0.00 | 0.00 | 0.00 | 38 | 1017.4 |
| 20260906044645 | 16 | 270 | 0.0 | 1.6 | 0.00 | 0.00 | 0.00 | 36 | 1017.5 |
| 20260906043612 | 16 | 277 | 0.0 | 0.0 | 0.00 | 0.00 | 0.00 | 34 | 1017.5 |
| 20260906042621 | 16 | 259 | 0.0 | 0.0 | 0.00 | 0.00 | 0.00 | 36 | 1017.5 |
| 20260906041612 | 17 | 280 | 0.0 | 0.0 | 0.00 | 0.00 | 0.00 | 34 | 1017.4 |
| 20260906040616 | 16 | 272 | 0.0 | 0.0 | 0.00 | 0.00 | 0.00 | 42 | 1017.2 |
| 20260906035623 | 17 | 200 | 0.0 | 0.0 | 0.00 | 0.00 | 0.00 | 40 | 1017.2 |
| 20260906034611 | 18 | 200 | 0.0 | 0.0 | 0.00 | 0.00 | 0.00 | 32 | 1017.1 |
| 20260906033638 | 18 | 201 | 0.0 | 0.0 | 0.00 | 0.00 | 0.00 | 34 | 1016.9 |
| 20260906032627 | 19 | 202 | 0.0 | 0.0 | 0.00 | 0.00 | 0.00 | 31 | 1016.8 |
| 20260906031614 | 20 | 202 | 0.0 | 0.0 | 0.00 | 0.00 | 0.00 | 32 | 1016.8 |
| 20260906030622 | 21 | 121 | 0.0 | 11.3 | 0.00 | 0.00 | 0.00 | 35 | 1016.8 |
| 20260906025612 | 20 | 101 | 0.0 | 3.2 | 0.00 | 0.00 | 0.00 | 44 | 1016.6 |
| 20260906024624 | 20 | 259 | 0.0 | 1.6 | 0.00 | 0.00 | 0.00 | 27 | 1016.3 |
| 20260906023611 | 20 | 271 | 0.0 | 3.2 | 0.00 | 0.00 | 0.00 | 27 | 1016.3 |
| 20260906022618 | 20 | 267 | 0.0 | 1.6 | 0.00 | 0.00 | 0.00 | 27 | 1016.2 |
| 20260906021610 | 20 | 259 | 0.0 | 1.6 | 0.00 | 0.00 | 0.00 | 27 | 1016.2 |
| 20260906020617 | 20 | 260 | 0.0 | 0.0 | 0.00 | 0.00 | 0.00 | 29 | 1016.3 |
| 20260906015625 | 20 | 263 | 0.0 | 0.0 | 0.00 | 0.00 | 0.00 | 29 | 1016.3 |
| 20260906014614 | 21 | 253 | 0.0 | 0.0 | 0.00 | 0.00 | 0.00 | 26 | 1016.3 |
| 20260906013622 | 22 | 228 | 0.0 | 0.0 | 0.00 | 0.00 | 0.00 | 26 | 1016.4 |
| 20260906012635 | 22 | 240 | 0.0 | 3.2 | 0.00 | 0.00 | 0.00 | 25 | 1016.5 |
| 20260906011621 | 23 | 228 | 0.0 | 1.6 | 0.00 | 0.00 | 0.00 | 23 | 1016.5 |
| 20260906010628 | 25 | 202 | 0.0 | 3.2 | 0.00 | 0.00 | 0.00 | 26 | 1016.5 |
| 20260906005636 | 25 | 221 | 0.0 | 3.2 | 0.00 | 0.00 | 0.00 | 22 | 1016.5 |
| 20260906004643 | 25 | 209 | 1.6 | 12.9 | 0.00 | 0.00 | 0.00 | 22 | 1016.4 |
| 20260906003612 | 25 | 212 | 6.4 | 24.1 | 0.00 | 0.00 | 0.00 | 22 | 1016.3 |
| 20260906002620 | 26 | 209 | 3.2 | 11.3 | 0.00 | 0.00 | 0.00 | 19 | 1016.2 |
| 20260906001628 | 25 | 203 | 3.2 | 20.9 | 0.00 | 0.00 | 0.00 | 19 | 1016.2 |
| 20260906000628 | 25 | 205 | 3.2 | 14.5 | 0.00 | 0.00 | 0.00 | 26 | 1016.2 |
| 20260905235620 | 26 | 223 | 1.6 | 6.4 | 0.00 | 0.00 | 0.00 | 20 | 1016.1 |
| 20260905234648 | 26 | 250 | 0.0 | 20.9 | 0.00 | 0.00 | 0.00 | 17 | 1016.1 |
| 20260905233613 | 25 | 214 | 6.4 | 20.9 | 0.00 | 0.00 | 0.00 | 23 | 1016.1 |